Regional Weather Roundup
Issued by NWS

Home | Current Version | Previous Version | Graphics & Text | Print | Product List | Glossary On
Versions: 1 2 3 4 5 6 7 8 9 10 11 12 13 14 15 16 17 18 19 20 21 22 23 24 25 26 27 28
000
ASUS45 KBOI 191110
RWRID
WEATHER ROUNDUP FOR IDAHO
NATIONAL WEATHER SERVICE BOISE ID
500 AM MDT SAT APR 19 2014

NOTE: "FAIR" INDICATES FEW OR NO CLOUDS BELOW 12000 FEET
WITH NO SIGNIFICANT WEATHER AND/OR OBSTRUCTIONS TO VISIBILITY

IDZ012-014-191200-
SOUTHWEST IDAHO


CITY           SKY/WX    TMP DP  RH WIND       PRES   REMARKS
BOISE          MOCLDY    45  23  42 SE10      29.95S
CALDWELL       MOCLDY    37  25  60 E3        29.98R
MOUNTAIN HOME  CLOUDY    42  28  57 E7        29.97S
$$

IDZ016-017-191200-
SOUTHCENTRAL IDAHO


CITY           SKY/WX    TMP DP  RH WIND       PRES   REMARKS
BURLEY         PTCLDY    34  27  75 CALM      30.00R
JEROME         PTCLDY    39  23  52 E6        29.99S WCI  35
TWIN FALLS     CLEAR     38  25  59 S10       29.99R WCI  31
$$

IDZ019>023-191200-
SOUTHEAST IDAHO


CITY           SKY/WX    TMP DP  RH WIND       PRES   REMARKS
IDAHO FALLS    PTCLDY    39  24  55 S7        30.01S WCI  34
POCATELLO      CLEAR     31  22  69 CALM      30.02R
REXBURG        PTCLDY    40  18  41 S9        30.00S WCI  34
$$

IDZ006-010-011-018-031-032-191200-
CENTRAL IDAHO MOUNTAINS


CITY           SKY/WX    TMP DP  RH WIND       PRES   REMARKS
MCCALL         CLEAR     26  19  74 CALM      29.98S
HAILEY         PTCLDY    36  19  51 N7        30.03R WCI  30
STANLEY          N/A     21  16  81 CALM      30.06R
SALMON         PTCLDY    27  18  69 CALM      30.04R
CHALLIS        PTCLDY    31  32 100 CALM      30.03R
$$

IDZ002-004-006-007-026-191200-
NORTHERN IDAHO


CITY           SKY/WX    TMP DP  RH WIND       PRES   REMARKS
LEWISTON       CLEAR     36  28  73 E7        29.96F WCI  30
LOWELL           N/A     33  31  92 NW5       30.07S WCI  29
COEUR D`ALENE  CLEAR     30  27  86 E7        29.98R WCI  23
MULLAN PASS    CLEAR     24  20  84 S8        29.92S WCI  15
$$



USA.gov is the U.S. government's official web portal to all federal, state and local government web resources and services.